Weather at Barbil Aerodrome (JSPL)

Public forecast

Using degrees Celsius for public forecast. Weather courtesy of forecast.io.

Closest aviation weather report (METAR) to Barbil Aerodrome (JSPL)

Closest report is Sonari Airport, 63.7 nm (118.0 km) NE. Retrieved 2021/04/11 08:00 UTC (1 hour ago):

VEJS 110800Z 11004KT 3000 HZ SCT020 SCT025 BKN100 39/15 Q1009

Closest aviation forecast (TAF) to Barbil Aerodrome (JSPL)

Forecast is more than 12 hours old.

Closest forecast is Sonari Airport, 63.7 nm (118.0 km) NE. Retrieved 2009/11/01 09:00 UTC (11 years ago):

TAF VEJS 010900Z 0112/0121 36004KT 2500 HZ FEW020 SCT025 SCT100 BECMG 0116/0118 00000KT 2000 HZ FEW018 SCT BECMG 0119/0121 00000KT 1600 BR